MOLNIYA 3-13

Last updated on Sun Jun 25 2023 00:03:02 GMT+0000 (Coordinated Universal Time)

1 11896U 80063A 23174.81636268 .00000369 00000+0 00000+0 0 9995 2 11896 62.8947 87.9146 7225284 277.1732 12.9672 2.00585688314598

Satellite not in orbit

MOLNIYA 3-13